CFG109 LIRF-EDDP

Flight info

Callsign CFG109
Flight time N/A
Altitude 18000
Route SOSIV5AXSOVAN1E/25 SOVAN L995 AMTEL/N0438F360 DCT LUMAV DCT SUMIR DCT BRENO DCT KONIN DCT ERNAS M726 LASGA T953 VOCIM/N0443F370 T954 GOXLI GOXLI1V
Aircraft A321/M-SDE3FGHIRWY/LB1

Departure

Time N/A
Airport Rome–Fiumicino Leonardo da Vinci International Airport (LIRF)

Arrival

Time 2026-05-06 18:38
Airport Leipzig/Halle Airport (EDDP)
Time Latitude Longitude Altitude Speed Heading
2026-05-06 18:12 49.23234 11.22136 35792 ft 477 kts 356°
2026-05-06 18:12 49.29824 11.22258 35465 ft 477 kts 359°
2026-05-06 18:13 49.33155 11.22316 35222 ft 478 kts 358°
2026-05-06 18:13 49.36478 11.22349 34981 ft 479 kts 357°
2026-05-06 18:13 49.39819 11.22364 34743 ft 480 kts 356°
2026-05-06 18:13 49.43117 11.22364 34545 ft 481 kts 356°
2026-05-06 18:14 49.46463 11.22363 34313 ft 481 kts 356°
2026-05-06 18:14 49.49804 11.22367 34076 ft 481 kts 356°
2026-05-06 18:14 49.53158 11.22380 33843 ft 482 kts 356°
2026-05-06 18:14 49.56511 11.22401 33571 ft 482 kts 356°
2026-05-06 18:15 49.59914 11.22426 33282 ft 483 kts 356°
2026-05-06 18:15 49.63271 11.22445 33009 ft 483 kts 356°
2026-05-06 18:15 49.66626 11.22455 32753 ft 481 kts 356°
2026-05-06 18:15 49.69973 11.22460 32473 ft 478 kts 356°
2026-05-06 18:16 49.73209 11.22465 32212 ft 476 kts 356°
2026-05-06 18:16 49.76477 11.22468 31950 ft 474 kts 356°
2026-05-06 18:16 49.79804 11.22467 31681 ft 471 kts 356°
2026-05-06 18:16 49.83077 11.22474 31412 ft 469 kts 356°
2026-05-06 18:17 49.86335 11.22489 31158 ft 467 kts 357°
2026-05-06 18:17 49.89534 11.22510 30926 ft 464 kts 357°
2026-05-06 18:17 49.92793 11.22537 30671 ft 461 kts 357°
2026-05-06 18:17 49.95985 11.22563 30423 ft 458 kts 357°
2026-05-06 18:18 49.99168 11.22587 30173 ft 456 kts 357°
2026-05-06 18:18 50.02331 11.22609 29930 ft 454 kts 357°
2026-05-06 18:18 50.05485 11.22628 29655 ft 451 kts 357°
2026-05-06 18:18 50.08614 11.22646 29367 ft 449 kts 357°
2026-05-06 18:19 50.11734 11.22662 29088 ft 446 kts 357°
2026-05-06 18:19 50.14821 11.22675 28830 ft 442 kts 357°
2026-05-06 18:19 50.20948 11.22702 28790 ft 440 kts 357°
2026-05-06 18:20 50.27077 11.22744 28791 ft 440 kts 357°
2026-05-06 18:20 50.33219 11.22784 28276 ft 440 kts 357°
2026-05-06 18:21 50.36284 11.22794 27318 ft 445 kts 357°
2026-05-06 18:21 50.39407 11.22705 26249 ft 453 kts 355°
2026-05-06 18:21 50.42546 11.22501 25208 ft 450 kts 355°
2026-05-06 18:21 50.45663 11.22235 24210 ft 446 kts 354°
2026-05-06 18:22 50.48736 11.21946 23218 ft 441 kts 354°
2026-05-06 18:22 50.51786 11.21663 22093 ft 436 kts 355°
2026-05-06 18:22 50.54797 11.21409 21019 ft 431 kts 355°
2026-05-06 18:22 50.57780 11.21177 19989 ft 426 kts 356°
2026-05-06 18:23 50.60719 11.21448 18980 ft 423 kts 11°
2026-05-06 18:23 50.63433 11.22965 18536 ft 405 kts 27°
2026-05-06 18:23 50.65697 11.25409 18171 ft 387 kts 43°
2026-05-06 18:23 50.67438 11.28505 17774 ft 373 kts 52°
2026-05-06 18:24 50.69029 11.31703 17378 ft 367 kts 52°
2026-05-06 18:24 50.70596 11.34852 16978 ft 363 kts 52°
2026-05-06 18:24 50.72144 11.37968 16584 ft 360 kts 52°
2026-05-06 18:24 50.73683 11.41065 16197 ft 357 kts 52°
2026-05-06 18:25 50.75212 11.44150 15814 ft 355 kts 52°
2026-05-06 18:25 50.76730 11.47209 15437 ft 353 kts 52°
2026-05-06 18:25 50.78239 11.50253 15063 ft 351 kts 52°
2026-05-06 18:25 50.79737 11.53288 14693 ft 349 kts 52°
2026-05-06 18:26 50.81229 11.56310 14325 ft 348 kts 52°
2026-05-06 18:26 50.82712 11.59313 13955 ft 346 kts 52°
2026-05-06 18:26 50.84195 11.62305 13604 ft 344 kts 50°
2026-05-06 18:26 50.85977 11.64792 13207 ft 341 kts 30°
2026-05-06 18:27 50.88146 11.66226 12809 ft 338 kts 14°
2026-05-06 18:27 50.90394 11.67276 12419 ft 336 kts 11°
2026-05-06 18:27 50.92687 11.67368 12032 ft 329 kts 346°
2026-05-06 18:27 50.94824 11.66175 11711 ft 325 kts 334°
2026-05-06 18:28 50.96905 11.64778 11465 ft 325 kts 335°
2026-05-06 18:28 50.99003 11.63433 11218 ft 325 kts 336°
2026-05-06 18:28 51.01192 11.62531 10968 ft 327 kts 351°
2026-05-06 18:28 51.03468 11.62457 10717 ft 328 kts
2026-05-06 18:29 51.05700 11.63122 10463 ft 329 kts 21°
2026-05-06 18:29 51.07678 11.64936 10224 ft 328 kts 33°
2026-05-06 18:29 51.09542 11.66985 9882 ft 324 kts 34°
2026-05-06 18:29 51.11364 11.69014 9636 ft 316 kts 34°
2026-05-06 18:30 51.13171 11.71035 9360 ft 309 kts 34°
2026-05-06 18:30 51.14993 11.72749 9105 ft 301 kts 18°
2026-05-06 18:30 51.17005 11.73244 8850 ft 295 kts 358°
2026-05-06 18:30 51.19053 11.73146 8591 ft 294 kts 355°
2026-05-06 18:31 51.21118 11.72983 8283 ft 293 kts 355°
2026-05-06 18:31 51.23120 11.72816 7891 ft 288 kts 355°
2026-05-06 18:31 51.25136 11.72640 7512 ft 286 kts 354°
2026-05-06 18:31 51.27116 11.72469 7061 ft 284 kts 355°
2026-05-06 18:32 51.29077 11.72302 6520 ft 280 kts 355°
2026-05-06 18:32 51.31017 11.72140 5972 ft 278 kts 355°
2026-05-06 18:32 51.32935 11.72209 5408 ft 276 kts 11°
2026-05-06 18:32 51.34667 11.73531 4854 ft 282 kts 39°
2026-05-06 18:33 51.35962 11.75898 4300 ft 286 kts 53°
2026-05-06 18:33 51.37099 11.78463 4140 ft 276 kts 54°
2026-05-06 18:33 51.38191 11.80979 4158 ft 275 kts 54°
2026-05-06 18:33 51.39280 11.83511 4194 ft 275 kts 54°
2026-05-06 18:34 51.40359 11.86035 4215 ft 275 kts 57°
2026-05-06 18:34 51.41234 11.88759 4229 ft 276 kts 66°
2026-05-06 18:34 51.41775 11.91693 4225 ft 275 kts 86°
2026-05-06 18:34 51.41583 11.94727 3742 ft 280 kts 111°
2026-05-06 18:35 51.40779 11.97583 3255 ft 281 kts 116°
2026-05-06 18:35 51.40203 12.00521 2914 ft 275 kts 94°
2026-05-06 18:35 51.40274 12.03536 2556 ft 269 kts 83°
2026-05-06 18:35 51.40477 12.06492 2202 ft 264 kts 84°
2026-05-06 18:36 51.40585 12.08414 1959 ft 259 kts 85°
2026-05-06 18:36 51.40719 12.11179 1627 ft 238 kts 85°
2026-05-06 18:36 51.40833 12.13622 1338 ft 204 kts 85°
2026-05-06 18:36 51.40933 12.15733 1090 ft 178 kts 84°
2026-05-06 18:37 51.41019 12.17552 856 ft 152 kts 84°
2026-05-06 18:37 51.41096 12.19182 569 ft 142 kts 83°
2026-05-06 18:37 51.41169 12.20703 459 ft 132 kts 83°
2026-05-06 18:37 51.41234 12.21942 457 ft 84 kts 85°
2026-05-06 18:38 51.41266 12.22605 463 ft 38 kts 85°
2026-05-06 18:38 51.41274 12.22915 466 ft 25 kts 86°
2026-05-06 18:38 51.41287 12.23173 470 ft 20 kts 83°
2026-05-06 18:38 51.41380 12.23250 468 ft 17 kts 359°
2026-05-06 18:39 51.41503 12.23235 465 ft 18 kts 356°
2026-05-06 18:39 51.41597 12.23206 462 ft 9 kts 325°
2026-05-06 18:39 51.41620 12.23112 463 ft 10 kts 286°
2026-05-06 18:40 51.41669 12.22828 453 ft 16 kts 285°
2026-05-06 18:40 51.41703 12.22633 447 ft 20 kts 285°
2026-05-06 18:40 51.41743 12.22401 433 ft 21 kts 285°
2026-05-06 18:40 51.41775 12.22215 436 ft 16 kts 285°
2026-05-06 18:41 51.41802 12.22051 434 ft 15 kts 285°
2026-05-06 18:41 51.41825 12.21931 427 ft 8 kts 307°
2026-05-06 18:41 51.41876 12.21937 436 ft 7 kts 15°
2026-05-06 18:41 51.41923 12.21957 436 ft 6 kts 15°
2026-05-06 18:42 51.41924 12.21957 433 ft 0 kts 15°